Regional Weather Roundup
Issued by NWS

Home | Current Version | Previous Version | Graphics & Text | Print | Product List | Glossary Off
Versions: 1 2 3 4 5 6 7 8 9 10 11 12 13 14 15 16 17 18 19 20 21 22 23 24 25 26 27 28 29 30 31 32 33 34 35 36 37 38 39 40 41 42 43 44 45 46 47 48 49 50

975
ASUS43 KMKX 220820
RWRWI

WISCONSIN REGIONAL WEATHER ROUNDUP
NATIONAL WEATHER SERVICE MILWAUKEE/SULLIVAN WI
200 AM CST WED NOV 22 2017

NOTE: "FAIR" INDICATES FEW OR NO CLOUDS BELOW 12,000 FEET WITH NO
SIGNIFICANT WEATHER AND/OR OBSTRUCTIONS TO VISIBILITY.

WIZ001-002-006>008-014>016-023>028-220900-
NORTHWEST WISCONSIN

CITY           SKY/WX    TMP DP  RH WIND       PRES   REMARKS
SUPERIOR ARPT  CLOUDY    17  10  75 W5        30.32S WCI   9
ASHLAND        CLOUDY    19  11  70 W8        30.30R WCI   9
HAYWARD        CLOUDY    16   9  74 VRB3      30.29R
SIREN          CLOUDY    13  10  84 CALM      30.32R
CUMBERLAND     CLOUDY    12   9  85 W5        30.31R WCI   4
RICE LAKE      CLOUDY    13   9  82 CALM      30.33R
CHETEK         CLOUDY    14   9  79 W3        30.32R
LADYSMITH      CLOUDY    18  11  74 W7        30.30R WCI   9
EAU CLAIRE     CLOUDY    14   7  73 NW5       30.32S WCI   6
MENOMONIE      CLOUDY    16  10  77 W3        30.34R
NEW RICHMOND   CLOUDY    13   8  79 W5        30.34R WCI   5
OSCEOLA        CLOUDY    14  10  83 CALM      30.38R
$$

WIZ003>005-009-010-017-018-220900-
NORTH CENTRAL WISCONSIN

CITY           SKY/WX    TMP DP  RH WIND       PRES   REMARKS
MANITOWISH WTR FLURRIES  16  12  82 W7        30.20R WCI   7
ARBOR VITAE    FLURRIES  19  13  78 NW6       30.20R WCI  11
WOODRUFF       FLURRIES  19  13  78 NW6       30.20R WCI  11
RHINELANDER    CLOUDY    18  12  77 W7        30.19R WCI   9
EAGLE RIVER    FLURRIES  18  13  80 W6        30.18R WCI  10
LAND O LAKES   FLURRIES  19  16  86 W5        30.19R WCI  12
PHILLIPS       CLOUDY    16  10  75 NW3       30.25R
TOMAHAWK       CLOUDY    17  10  74 W5        30.23R WCI  10
MEDFORD        CLOUDY    16   9  71 N9        30.24R WCI   5
MERRILL        CLOUDY    18  10  70 NW7       30.25R WCI   9
$$

WIZ029-030-035-036-043>047-220900-
CENTRAL WISCONSIN

CITY           SKY/WX    TMP DP  RH WIND       PRES   REMARKS
WAUSAU         CLOUDY    19   9  65 N12       30.23R WCI   7
MOSINEE        CLOUDY    19  12  73 N8        30.25R WCI   9
MARSHFIELD     CLOUDY    17  10  74 NW6       30.24R WCI   9
STEVENS POINT  CLOUDY    18  10  71 NW5       30.26R WCI  11
WAUPACA        CLEAR     21  12  68 W3        30.26R
WAUTOMA        CLEAR     16  10  77 W6        30.27R WCI   7
WISC RAPIDS    CLEAR     17  10  74 N9        30.27R WCI   6
CAMP DOUGLAS   CLEAR     16  10  76 NW8       30.29R WCI   5
$$

WIZ011>013-019>022-031-037>040-048>050-220900-
NORTHEAST WISCONSIN

CITY           SKY/WX    TMP DP  RH WIND       PRES   REMARKS
ANTIGO         CLOUDY    18  13  80 NW5       30.20R WCI  11
SHAWANO        CLOUDY    25  13  60 N6        30.25R WCI  18
OCONTO         CLOUDY    25  11  56 N8        30.24R WCI  16
STURGEON BAY   CLOUDY    25  13  60 NW20      30.22R WCI  11
GREEN BAY      CLOUDY    23  15  71 W6        30.24R WCI  16
MANITOWOC      CLOUDY    25  14  63 NW7       30.24R WCI  17
APPLETON       MOCLDY    18  10  73 W8        30.23R WCI   7
CLINTONVILLE   CLOUDY    23  10  58 N10       30.25R WCI  12
OSHKOSH        CLEAR     19  12  74 W7        30.25R WCI  10
$$

WIZ032>034-041-042-053>061-220900-
SOUTHWEST WISCONSIN

CITY           SKY/WX    TMP DP  RH WIND       PRES   REMARKS
LA CROSSE      CLEAR     22  12  65 N10       30.33R WCI  11
SPARTA         CLEAR     19  12  73 NW5       30.31R WCI  13
VIROQUA        CLEAR     18  14  84 NW5       30.27R WCI  11
BOSCOBEL       CLEAR     23  12  62 CALM      30.32R
PRAIRIE DU CHI CLEAR     21  12  66 NW3       30.33R
PLATTEVILLE    CLEAR     19  15  84 W5        30.29R WCI  12
$$

WIZ056-057-062-063-064-067-068-220900-
SOUTH CENTRAL WISCONSIN

CITY           SKY/WX    TMP DP  RH WIND       PRES   REMARKS
REEDSBURG      CLEAR     20  11  68 NW5       30.28R WCI  13
BARABOO/DELLS  CLEAR     20  11  66 NW3       30.27R
LONE ROCK      CLEAR     20  13  74 W5        30.30R WCI  13
MINERAL POINT  CLEAR     21  16  79 NW3       30.26R
MADISON        CLEAR     19  13  77 W5        30.26R WCI  12
MIDDLETON      CLEAR     22  14  72 NW6       30.28R WCI  15
WATERTOWN      CLEAR     19  15  81 NW3       30.25R
MONROE         CLEAR     21  14  73 W8        30.26R WCI  12
JANESVILLE     CLEAR     19  14  79 NW6       30.26R WCI  11
$$

WIZ051-052-058>065-066-070>072-220900-
SOUTHEAST WISCONSIN

CITY           SKY/WX    TMP DP  RH WIND       PRES   REMARKS
MILWAUKEE      CLEAR     24  13  62 NW8       30.25R WCI  15
WAUKESHA       CLEAR     19  14  79 NW6       30.26R WCI  11
MILWAUKEE/TIMM CLEAR     21  10  63 NW5       30.26R WCI  15
RACINE         CLEAR     23  13  65 NW6       30.27R WCI  16
BURLINGTON     CLEAR     21  19  89 NW5       30.25R WCI  15
KENOSHA        CLEAR     21  13  71 NW6       30.25R WCI  13
FOND DU LAC    FLURRIES  20  11  68 NW7       30.25R WCI  11
SHEBOYGAN      CLOUDY    23  15  71 NW6       30.24R WCI  16
WEST BEND      CLEAR     19  12  73 NW3       30.24R
JUNEAU         CLEAR     19  13  76 CALM      30.26R
$$

LSZ147-162-220900-
LAKE SUPERIOR

STATION/POSITION TIME  TEMP    WIND        PRES    WAVE
                       AIR SEA DIR/SP/G            HT/PER
                 (UTC) (F)     (DEG/KT/KT) (MB)    (FT/S)
DEVILS ISLAND    0800   22     300/ 14/ 17 1026.4R
SAXON HARBOR     0740   22     240/  8/ 10 1024.7R
$$

LMZ867-665-643>646-220900-
LAKE MICHIGAN

STATION/POSITION TIME  TEMP    WIND        PRES    WAVE
                       AIR SEA DIR/SP/G            HT/PER
                 (UTC) (F)     (DEG/KT/KT) (MB)    (FT/S)
N MID LAKE BUOY  0750   28 47  300/ 17/ 23 1022.6R   4/ 5
NORTHPORT PIER   0748   28     310/ 18     1022.0R
KEWAUNEE LAKESHO 0800   26     320/  9/ 12 1022.8
SHEBOYGAN LAKESH 0800   25     320/  9/ 10 1024.9R
PORT WASHINGTON  0740   23     290/  4/  5 1025.4R
MILWAUKEE LAKESH 0800   25     310/  7/  8   N/A
S MID LAKE BUOY  0750   30 47  350/ 12/ 17 1023.9R   5/ 6
KENOSHA   LAKESH 0800   24     310/  7/ 11 1024.7
$$

TC  - TEMPERATURE IN CELSIUS
VSB - VISIBILITY IN STATUTE MILES
WCI - WIND CHILL INDEX
HX  - HEAT INDEX





USA.gov is the U.S. government's official web portal to all federal, state and local government web resources and services.